SL-16 DEB, 22618

Orbit data source: Space-Track

SL-16 DEB, 22618 is space debris in LEO originally from a launch on Fri, 26 Mar 1993 UTC launched from the Tyuratam Missile And Space Complex (TTMTR). Debris objects in space refer to the collection of defunct objects orbiting the Earth. Examples of debris include non-operational satellites, rocket bodies, and fragments generated from explosions, collisions, or faulty payload assembly.

Loading next visibility...
Identifier
22618, 1993-016AC
Orbit
LEO
Country
Flag of CISCIS
Related business
Manufacturer
Unknown
Mission
Spacecraft
Bus & Motor
Unknown
Mass
Unknown
Launch date (UTC)
1993-03-26 (33 years ago)
Launch vehicle
Unknown
Launch site
Tyuratam Missile And Space Complex (TTMTR)
Object type
Payload
Rocket body
Debris
Shape & HBR
Unknown shape, 0.2 m
Radar Cross Section
Small (<0.1 m²)

Expand to show TLE details & history
Last TLE update: 6 hours ago

TLE from 6 hours ago
0 SL-16 DEB
1 22618U 93016AC  25308.46648020  .00000376  00000-0  34670-3 0  9995
2 22618  70.9948  29.1012 0158677 264.9996  93.2980 13.83421908643409
Epoch: 2025-11-04T11:11Z
TLE epoch observation values (Epoch: 2025-11-04T11:11:43.889Z)
Latitude
-0.00006°
Longitude
177.21521°
Altitude
962.668 km
Speed
7.366 km/s
True Right ascension
01h 56m 24s
True Declination
0° 00' 00"
Sunlit
Object was in full shadow at epoch
Visualization orbit readout
Latitude
Unknown
Longitude
Unknown
Altitude
Unknown
Speed
Unknown
Apparent Right ascension
Unknown
Apparent Declination
Unknown
Sunlit
N/A
Visualization observer readout
Local Sidereal Time
12:50:27
Azimuth
Unknown
Elevation
Unknown
Doppler factor
Unknown
Orbital elements
Apogee altitude
1,066.007 km
Perigee altitude
833.454 km
Semi-major axis
7,327.867 km
Eccentricity
0.01587
Inclination
70.9948°
RAAN
29.1012°
Arg. of periapsis
264.9996°
True anomaly
95.11092°
Mean anomaly
93.298°
Eccentric anomaly
94.20471°
Mean motion
3.46001 °/min
Orbital period
104.05 mins
BSTAR
0.0003467
Loading maneuver chart data...
Computing Atmospheric mass density...
Loading historical data...
Loading historical data...
Loading historical data...
Loading historical data...
Loading historical data...
Loading historical data...
Loading historical data...

Documentation

Showing up to 5 results
|